Location: Ashtead
(51.3000°N, 0.3000°W)
Time: 16:44:16
(UTC+00:00)

CZ-2C R/B - Pass Details

Date: 01 May 2025
Orbit: 781 x 868 km, 98.4° (Epoch: 12 May)

Event Time Altitude Azimuth Distance (km) Brightness Sun altitude
Exits shadow 23:26:10 11° 99° (E) 2,341 4.8 -22.9°
Maximum altitude 23:29:41 20° 56° (NE) 1,788 4.7 -23.0°
Drops below altitude 10° 23:33:25 10° 10° (N) 2,381 6.0 -23.1°
Sets 23:36:17 0° 354° (N) 3,304 7.3 -23.1°
